{"data":{"norad_id":61530,"epoch":"2026-09-20T20:52:13.949760Z","epoch_age_seconds":160226,"freshness":"FRESH","line1":"1 61530U 24183X   26263.86960590  .00000564  00000+0  29960-4 0  9999","line2":"2 61530  53.1612 314.5650 0001400  83.5978 276.5183 15.31697353109559","mean_motion":15.31697353,"eccentricity":0.00014,"inclination_deg":53.1612,"raan_deg":314.565,"arg_perigee_deg":83.5978,"mean_anomaly_deg":276.5183,"bstar":2.996e-5,"rev_number":10955,"period_min":94.013350429809,"perigee_km":469.78904192226,"apogee_km":471.70672969029,"semimajor_km":6848.8848858063,"source":"CELESTRAK","updated_at":"2026-09-22T09:00:49.362577Z"}}